This is the latest recevied weather packets stored in our database for station/object M0ADS. If no packets are shown the sender has not sent any weather packets the latest 10 day(s).
| Time | Temp. | Humidity | Pressure | Rain* | Wind** | Luminosity | Snow |
|---|---|---|---|---|---|---|---|
| 1777708206 | 12.22° C | 79% | 1016.4 hPa | 0 mm | - | - | - |
| 1777707306 | 12.22° C | 80% | 1016.4 hPa | 0 mm | - | - | - |
| 1777706405 | 11.67° C | 80% | 1016.3 hPa | 0 mm | - | - | - |
| 1777705506 | 11.67° C | 81% | 1016.2 hPa | 0 mm | - | - | - |
| 1777704606 | 11.67° C | 82% | 1016.1 hPa | 0 mm | - | - | - |
| 1777703703 | 11.67° C | 83% | 1016 hPa | 0 mm | - | - | - |
| 1777702803 | 10.56° C | 85% | 1016.1 hPa | 0 mm | - | - | - |
| 1777701903 | 10° C | 87% | 1016.2 hPa | 0 mm | - | - | - |
| 1777701004 | 9.44° C | 87% | 1016.2 hPa | 0 mm | - | - | - |
| 1777700101 | 9.44° C | 87% | 1016.1 hPa | 0 mm | - | - | - |
| 1777699201 | 8.89° C | 88% | 1016.2 hPa | 0 mm | - | - | - |
| 1777698300 | 8.89° C | 88% | 1016.1 hPa | 0 mm | - | - | - |
| 1777697400 | 8.89° C | 88% | 1016.3 hPa | 0 mm | - | - | - |
| 1777696499 | 8.89° C | 88% | 1016.2 hPa | 0 mm | - | - | - |
| 1777695599 | 8.89° C | 88% | 1016.2 hPa | 0 mm | - | - | - |
| 1777694699 | 8.89° C | 87% | 1016.2 hPa | 0 mm | - | - | - |
| 1777693799 | 9.44° C | 87% | 1016.4 hPa | 0 mm | - | - | - |
| 1777692899 | 9.44° C | 87% | 1016.4 hPa | 0 mm | - | - | - |
| 1777691997 | 9.44° C | 87% | 1016.5 hPa | 0 mm | - | - | - |
| 1777691097 | 9.44° C | 86% | 1016.5 hPa | 0 mm | - | - | - |
| 1777690195 | 10° C | 86% | 1016.5 hPa | 0 mm | - | - | - |
| 1777689295 | 10° C | 85% | 1016.5 hPa | 0 mm | - | - | - |
| 1777688395 | 10.56° C | 84% | 1016.4 hPa | 0 mm | - | - | - |
| 1777687495 | 11.11° C | 84% | 1016.7 hPa | 0 mm | - | - | - |
| 1777686595 | 11.11° C | 83% | 1016.8 hPa | 0 mm | - | - | - |
* Rain latest hour (hover to see other rain measurements)
** Current wind speed in m/s (hover to see current wind gust speed)